Regional Weather Roundup
Issued by NWS Cleveland, OH

Home | Current Version | Previous Version | Graphics & Text | Print | Product List | Glossary On
Versions: 1 2 3 4 5 6 7 8 9 10 11 12 13 14 15 16 17 18 19 20 21 22 23 24 25 26 27 28 29 30 31 32 33 34 35 36 37 38 39 40 41 42 43 44 45 46 47 48 49 50
000
ASUS41 KCLE 171910
RWRCLE
OHIO REGIONAL WEATHER ROUNDUP
NATIONAL WEATHER SERVICE CLEVELAND, OH
300 PM EDT WED SEP 17 2014

NOTE: "FAIR" INDICATES FEW OR NO CLOUDS BELOW 12,000 FEET WITH NO
SIGNIFICANT WEATHER AND/OR OBSTRUCTIONS TO VISIBILITY.

OHZ001>008-015>018-024>027-034-035-043-044-172000-
   NORTHWEST OHIO

CITY           SKY/WX    TMP DP  RH WIND       PRES   REMARKS
DEFIANCE       PTSUNNY   66  44  45 VRB7      30.01F
FINDLAY        MOSUNNY   68  46  45 VRB3      30.01F
TOLEDO EXPRESS PTSUNNY   66  45  46 W8G18     30.01F
TOLEDO EXEC    SUNNY     67  43  41 W9        30.01F
LIMA           MOSUNNY   67  47  48 W7        30.02F
$$

OHZ009>014-019>023-028>033-038-089-172000-
   NORTHEAST OHIO

CITY           SKY/WX    TMP DP  RH WIND       PRES   REMARKS
CLE-HOPKINS    PTSUNNY   67  46  47 VRB7      30.02F
CLE-LAKEFRONT  SUNNY     65  50  58 NW10      29.99F
CUY CO. ARPT   MOSUNNY   66  52  59 NW12      30.01F
LORAIN-ELYRIA  PTSUNNY   70  49  47 W8        30.01F
ASHTABULA      PTSUNNY   66  47  50 W9        30.00F
AKRON-CANTON   MOSUNNY   67  44  43 CALM      30.01F
WOOSTER        MOSUNNY   69  46  43 MISG      30.01F
MANSFIELD      PTSUNNY   68  45  43 SW9       30.02S
YOUNGSTOWN     PTSUNNY   65  45  48 NW7       30.00F
$$

OHZ042-051>053-060>062-070>072-077>081-172000-
  SOUTHWEST OHIO

CITY           SKY/WX    TMP DP  RH WIND       PRES   REMARKS
CINC-COVINGTON PTSUNNY   65  48  54 CALM      30.02F
CINC-LUNKEN    MOSUNNY   66  49  54 N6        30.03F
HAMILTON       PTSUNNY   66  51  58 N3        30.04F
DAYTON         PTSUNNY   63  48  58 NE3       30.04F
WRIGHT-PAT AFB PTSUNNY   65  47  52 CALM      30.03F
DAYTON GENERAL MOSUNNY   63  47  55 S3        30.03F
WILMINGTON     CLOUDY    63  46  54 CALM      30.02F
$$

OHZ036-037-039>041-045>050-054>059-063>069-073>076-082>088-172000-
  CENTRAL AND SOUTHEAST OHIO

CITY           SKY/WX    TMP DP  RH WIND       PRES   REMARKS
COLUMBUS       MOSUNNY   68  46  45 SW7       30.01F
OSU AIRPORT    PTSUNNY   65  47  52 MISG      30.02F
BOLTON FIELD   PTSUNNY   64  50  59 NW7       30.03F
RICKENBACK AFB CLOUDY    68  48  49 W7        30.01S
NEWARK         PTSUNNY   67  48  50 S5        30.00F
MARION         MOSUNNY   66  45  46 VRB3      30.02F
LANCASTER      PTSUNNY   67  50  54 N3        30.01F
ZANESVILLE     MOSUNNY   70  47  43 W6        30.00F
NEW PHILLY     SUNNY     69  48  47 VRB7      30.01F
$$



USA.gov is the U.S. government's official web portal to all federal, state and local government web resources and services.